Wind_Speed
63 63 64 66 67 70 72 75 76 76 75 74 72 70 67 64 60 57 56 56 55 54 53 53 53 54 54 54 54 55 55 56 57 58 58 58 57 58 60 61 61 61 61 61 61 62 62 62 62 61 61 60 60 60 60 60 61 61 61 61 62 63 64 66 67 67 67 66 66 68 70 71 71 70 68 67 66 65 64 64 65 67 69 69 69
66 67 67 67 67 69 71 71 74 79 79 74 72 70 67 64 60 58 58 57 57 57 56 56 56 56 56 56 56 57 58 59 60 61 61 60 60 60 61 63 64 63 63 63 63 64 64 64 63 63 62 62 62 62 63 64 64 64 64 64 65 65 66 67 68 68 68 68 67 68 70 71 70 69 68 67 66 66 65 65 66 67 68 67 65
68 68 69 69 68 68 70 71 75 80 77 72 71 69 66 64 62 61 60 59 59 59 58 58 58 58 57 57 58 59 61 62 63 64 64 64 63 62 63 64 65 65 65 65 65 65 64 64 64 63 63 64 64 65 65 66 66 66 67 67 67 68 68 69 69 69 69 69 69 69 71 71 70 69 69 68 67 66 66 65 66 66 66 64 63
69 70 72 73 72 72 73 76 78 76 71 70 71 69 67 66 64 62 61 61 61 60 60 60 60 60 60 60 61 62 63 64 65 65 66 66 66 65 66 65 66 66 67 66 66 66 65 65 64 64 65 65 66 66 66 67 67 67 67 67 68 68 69 69 69 70 70 70 69 69 70 70 69 68 68 68 67 65 64 63 63 63 63 62 61
67 68 70 73 75 76 76 77 74 67 62 62 64 64 65 66 65 63 62 61 60 60 59 59 59 59 59 59 61 62 64 65 65 65 66 68 68 69 68 67 67 67 67 67 67 67 66 65 65 66 67 67 67 67 67 67 67 67 67 67 67 67 68 68 69 70 70 70 69 68 67 67 66 67 67 67 65 64 62 61 60 60 60 60 60
71 71 71 70 71 73 74 73 71 67 64 63 65 66 66 63 62 60 58 56 56 56 56 56 57 57 57 58 60 60 62 62 63 64 66 69 71 71 71 69 68 67 67 67 67 67 67 67 68 69 69 69 69 68 68 68 68 67 67 66 66 66 67 68 69 69 69 69 68 66 65 65 65 66 66 66 64 62 61 60 59 59 59 59 60
79 80 79 77 75 76 78 78 77 75 74 74 75 76 72 66 62 61 60 61 60 60 59 59 60 60 62 63 64 64 64 64 65 67 69 72 74 74 73 72 70 69 68 68 68 68 68 68 69 70 70 70 69 68 68 68 68 67 65 65 65 65 66 67 68 69 69 69 67 65 64 64 65 65 65 64 62 61 60 59 59 59 59 59 59
86 87 88 87 84 83 83 84 83 80 78 77 77 76 74 69 65 66 68 69 69 68 66 65 65 65 66 67 67 67 68 69 70 72 73 74 76 77 76 76 74 71 69 69 68 68 67 67 68 69 69 70 70 69 69 68 67 65 64 64 65 65 66 67 68 69 68 66 64 63 63 64 64 63 62 61 61 61 61 59 58 58 59 59 58
88 90 91 92 91 90 89 88 86 83 79 76 74 73 72 69 67 68 70 70 70 70 70 69 69 68 68 68 68 69 71 71 72 74 74 75 76 77 77 77 76 73 71 69 68 68 67 67 68 69 70 70 69 68 67 66 64 63 63 65 66 66 67 67 67 66 64 62 62 62 62 63 62 61 60 60 61 61 60 59 58 59 58 58 57
83 84 86 88 90 90 89 87 85 83 80 76 73 71 70 69 68 68 69 71 71 72 73 72 71 70 69 69 70 72 73 74 74 74 75 75 76 77 77 77 77 76 74 72 71 70 69 69 69 69 68 68 67 67 66 64 63 63 64 66 66 66 66 65 64 62 61 61 61 61 62 62 61 60 60 60 60 60 59 59 59 59 58 57 56
77 76 77 79 81 82 82 81 79 78 78 76 74 71 69 69 68 68 69 71 73 74 75 75 74 73 72 72 72 73 74 75 75 75 75 75 76 77 78 78 78 77 75 74 73 72 70 69 68 67 67 67 66 66 65 63 63 65 66 66 66 65 64 63 62 62 61 60 61 61 61 61 61 61 60 60 59 59 59 59 59 59 59 59 57
72 72 72 73 73 75 76 75 74 73 73 73 73 72 71 70 69 69 70 71 73 74 75 75 76 76 75 75 74 74 75 76 76 75 75 74 75 77 79 80 79 77 75 74 72 71 70 68 66 66 66 66 66 64 63 63 64 65 66 65 65 64 64 63 62 62 60 60 61 62 62 61 61 61 60 60 59 59 60 60 61 61 61 61 59
73 72 72 72 72 71 71 71 71 70 70 71 72 73 72 72 71 71 70 71 72 73 75 76 77 78 79 78 77 77 78 77 76 76 75 74 74 75 77 78 77 76 74 71 69 68 66 64 63 64 65 66 65 64 63 64 66 67 67 66 65 64 64 63 62 61 60 60 61 62 63 62 62 62 61 61 60 61 61 62 64 64 64 63 62
76 74 73 71 69 68 68 69 70 70 69 70 70 71 72 72 71 71 71 71 71 73 76 78 78 79 80 79 80 81 79 77 77 77 76 74 73 74 74 75 73 71 69 66 64 63 63 63 64 65 66 66 65 64 65 67 68 69 68 66 64 64 64 63 62 61 60 61 62 64 64 64 63 63 63 63 62 63 64 65 66 66 65 64 65
77 76 76 73 70 68 69 69 70 71 71 71 70 71 72 73 74 74 73 72 72 72 74 75 76 77 79 79 81 81 79 78 78 78 77 75 74 74 73 71 68 65 63 63 62 63 64 66 67 68 67 66 64 65 67 69 71 70 68 66 65 65 64 62 61 61 62 63 64 65 66 66 65 65 65 66 66 67 68 68 68 68 67 66 67
79 79 78 75 71 69 69 69 70 72 73 73 71 71 72 75 77 78 77 75 74 73 72 72 72 73 76 78 79 79 79 79 79 79 78 77 75 74 71 68 65 64 63 64 64 65 65 65 66 66 65 64 64 67 70 73 73 70 68 67 66 64 62 61 61 62 63 64 65 66 67 67 67 68 69 70 70 70 69 68 68 68 69 69 69
86 84 83 81 77 74 72 71 70 71 73 74 74 73 74 76 79 81 81 78 77 77 76 74 72 72 74 76 77 78 80 80 79 77 77 76 74 72 69 67 66 64 64 64 64 64 63 62 63 64 64 64 66 69 73 75 74 71 71 69 65 60 59 60 61 63 64 66 67 68 68 69 69 71 72 73 72 70 68 67 69 70 71 72 73
90 90 89 88 85 82 80 77 74 73 73 74 75 76 77 79 81 83 84 81 80 79 80 78 76 75 76 77 78 79 80 80 78 76 75 73 72 71 68 66 65 64 63 63 63 62 60 60 62 64 66 68 70 72 75 77 75 73 72 69 63 58 58 59 60 63 66 68 69 69 68 70 71 73 73 72 70 68 68 69 71 73 75 77 78
92 92 92 91 90 89 88 86 82 78 75 74 75 76 78 80 82 83 84 84 83 81 80 78 76 75 75 76 76 76 77 77 76 75 73 72 71 69 67 65 64 62 62 62 62 60 59 61 64 66 68 71 73 75 78 79 76 74 73 70 64 60 59 59 61 65 69 70 69 68 69 71 73 73 71 69 68 68 69 71 73 75 77 79 80
94 94 94 93 93 93 92 91 89 84 80 77 76 76 77 81 83 83 83 85 85 83 82 80 78 77 76 75 75 74 74 74 73 72 71 69 68 65 63 62 62 61 60 60 60 60 61 64 67 68 70 73 73 75 78 79 76 74 73 71 68 65 63 61 63 67 70 69 68 68 70 73 73 71 68 67 67 69 71 74 76 77 78 79 80
97 97 97 96 96 95 94 93 91 88 85 81 79 77 76 78 81 82 82 83 84 83 83 83 82 81 80 79 77 76 74 72 71 68 66 65 64 62 61 62 62 62 61 60 61 62 64 67 69 69 71 73 73 75 77 77 76 74 70 68 68 67 65 64 67 69 69 68 68 70 72 72 70 68 66 67 69 72 74 76 77 78 79 80 81
101 100 99 98 96 95 94 91 89 88 86 83 82 79 77 77 76 76 77 78 79 79 80 81 80 79 79 79 77 76 75 73 71 68 66 66 64 61 61 62 63 62 61 61 62 64 66 68 69 69 68 69 70 73 75 75 76 73 68 65 65 65 65 67 70 70 69 68 69 70 71 70 68 67 67 70 72 73 74 75 76 78 79 81 82
102 100 97 95 93 92 91 88 87 87 86 85 84 83 81 79 76 75 74 74 74 75 75 77 76 75 75 75 75 75 75 73 70 68 68 68 66 63 61 63 64 63 61 61 63 65 67 67 66 65 64 65 67 70 74 76 75 70 66 64 64 63 65 68 70 70 70 70 70 70 69 68 68 68 70 71 72 72 73 73 75 76 79 81 82
98 97 95 92 90 89 88 87 87 87 86 85 83 83 84 83 80 78 77 76 75 74 74 75 75 75 75 75 75 74 73 72 69 68 68 69 68 67 65 65 66 64 61 60 63 66 67 65 62 61 62 66 69 71 73 74 71 66 65 65 63 63 65 68 69 70 70 70 70 70 69 68 68 69 70 71 70 70 71 72 74 76 79 80 82
96 94 92 89 87 86 87 87 85 84 84 84 82 81 83 84 83 81 80 80 79 78 77 76 76 76 75 75 75 74 73 72 71 71 71 70 70 69 68 67 68 66 63 62 64 66 66 63 61 61 63 68 71 70 68 67 66 65 66 65 64 65 67 69 69 70 70 70 69 69 68 68 69 70 70 69 69 70 71 72 74 76 78 80 81
97 94 91 88 86 86 88 89 86 83 82 83 82 81 80 81 81 81 81 81 82 82 80 77 76 75 74 73 73 73 73 73 72 72 73 72 72 70 69 69 69 68 65 65 67 67 65 62 60 61 63 66 67 67 66 66 67 66 67 68 69 70 71 69 69 68 68 68 68 68 69 70 70 70 69 69 70 72 73 73 74 76 78 79 80
101 98 94 91 90 89 91 93 91 87 84 83 82 82 81 80 79 78 78 79 81 82 81 78 76 75 74 74 74 74 73 73 73 73 74 74 73 72 71 70 71 70 69 68 68 67 65 63 62 62 63 64 67 68 69 69 69 69 71 73 73 72 70 68 67 67 68 68 69 70 71 71 70 70 71 71 72 73 73 73 74 76 78 80 81
107 105 102 99 96 94 95 96 96 95 92 89 86 85 83 82 81 79 78 78 80 81 81 79 77 76 76 76 76 75 74 73 72 73 75 76 75 74 73 72 72 72 71 69 67 66 65 63 62 64 68 70 72 73 73 72 72 73 74 73 71 69 68 67 68 68 69 69 70 71 71 71 71 71 71 71 71 72 72 73 75 77 79 80 81
109 111 111 110 108 104 103 103 103 103 102 99 95 91 88 87 85 82 79 79 81 83 82 80 79 78 77 77 76 75 75 75 75 77 78 78 79 78 76 75 73 72 71 70 68 68 67 63 61 66 71 74 75 75 75 76 76 74 72 69 67 65 65 66 67 68 68 69 69 70 70 70 70 71 71 70 71 71 72 74 76 77 79 80 81
103 107 110 113 115 116 114 113 111 110 110 109 105 100 95 92 90 87 84 82 83 85 85 83 80 79 78 77 76 75 76 77 79 80 81 81 82 82 81 80 78 75 74 72 70 70 69 64 63 67 72 75 76 77 78 78 76 71 67 64 63 63 65 66 66 67 67 68 68 68 68 69 70 70 70 70 71 73 74 75 76 78 79 80 80
98 100 103 106 109 113 115 117 117 118 118 117 115 109 103 98 95 93 91 88 87 88 87 85 82 80 79 78 77 77 78 80 81 81 81 81 81 80 80 81 80 78 77 75 73 73 71 68 66 68 71 73 75 75 76 74 70 64 60 60 62 64 66 66 66 67 67 67 67 68 69 70 71 71 71 71 73 75 76 76 77 78 78 79 80
94 95 96 99 101 104 108 110 114 117 119 121 120 117 112 106 101 99 98 96 94 93 92 90 87 83 80 79 78 77 79 81 81 80 79 78 76 75 76 77 76 76 76 76 76 77 74 69 68 69 70 71 72 71 69 66 62 59 59 60 63 65 67 67 68 69 69 69 70 71 72 71 71 71 72 73 75 77 77 77 77 77 77 77 78
90 91 91 92 94 97 100 102 104 107 111 115 118 118 116 113 108 105 104 103 101 98 96 96 93 87 81 78 77 77 79 83 84 82 79 77 75 74 74 74 74 74 74 75 76 77 74 69 68 68 67 67 66 66 64 62 61 61 63 64 65 66 67 67 68 69 70 71 72 72 72 71 71 71 72 74 77 78 77 75 74 74 75 76 76
85 85 86 87 88 89 91 93 94 96 99 103 107 109 110 110 109 108 108 108 107 103 100 98 97 92 85 81 81 82 83 84 85 85 83 80 77 75 74 74 74 74 74 74 75 74 72 68 64 62 60 60 59 59 61 62 64 65 65 65 64 65 65 66 68 69 71 73 73 73 73 72 72 72 73 75 77 77 75 72 71 72 73 74 74
77 78 78 80 81 82 82 83 84 86 88 91 94 97 100 101 102 102 105 108 110 108 104 100 97 94 90 88 89 91 90 86 83 83 85 83 79 77 75 74 72 71 70 69 69 68 66 64 62 61 61 61 62 64 66 67 68 67 66 65 63 63 63 65 67 70 72 74 75 75 74 73 73 73 74 75 76 75 72 69 69 70 72 73 73
67 68 69 70 72 73 73 74 75 77 79 81 82 85 88 91 92 93 96 101 106 109 108 104 100 97 96 95 95 95 94 91 87 86 88 87 84 81 77 74 72 71 70 69 67 67 66 67 67 68 68 68 69 71 72 74 74 73 71 68 65 63 63 65 67 70 72 75 77 77 75 74 73 73 74 74 73 71 68 67 67 68 70 71 71
57 58 59 61 63 64 65 66 68 69 71 72 74 75 78 80 82 83 86 90 96 102 107 108 105 102 100 101 100 99 98 98 96 93 92 92 90 87 81 77 74 74 74 74 73 72 72 72 73 73 73 72 71 71 72 73 73 72 70 67 66 66 66 67 68 69 72 75 77 77 76 74 73 73 73 72 69 67 65 64 65 67 68 69 69
48 50 51 53 55 56 57 59 60 62 64 65 66 68 70 71 73 75 77 80 84 90 97 103 107 107 106 105 106 106 106 105 104 99 96 95 96 93 88 84 80 77 76 76 75 75 75 76 76 76 76 76 74 72 71 71 71 71 71 71 71 72 72 71 70 71 73 75 76 76 75 74 73 72 70 67 65 63 62 63 64 65 66 66 67
40 42 43 45 46 48 49 50 52 54 57 58 60 62 63 64 65 67 68 71 74 78 83 90 96 102 105 107 108 109 108 106 104 101 98 98 99 98 96 92 89 84 81 79 78 78 78 79 78 78 79 79 77 76 75 74 74 74 75 76 76 76 75 73 72 72 73 74 74 74 73 72 70 68 65 63 61 60 61 62 63 64 64 65 66
36 37 38 38 40 40 41 42 43 45 47 49 52 55 56 57 58 60 61 64 66 68 71 75 80 86 91 96 99 102 102 100 98 97 97 98 100 100 98 96 95 93 91 88 85 83 82 81 80 80 80 79 78 77 76 75 74 74 74 75 75 75 74 74 73 72 72 71 71 70 69 68 65 63 61 60 59 59 60 61 62 63 63 65 66
31 31 32 33 33 34 34 35 35 37 39 41 43 46 48 49 51 53 55 56 58 60 62 64 67 71 75 80 85 89 91 91 92 93 94 95 96 95 95 94 94 94 93 90 87 85 84 82 81 80 78 77 76 75 74 73 72 72 72 72 72 72 72 71 70 69 68 67 67 66 65 63 61 59 58 58 58 58 59 60 61 62 64 65 67
27 27 28 29 29 29 29 29 29 30 32 33 35 37 39 41 43 45 47 49 51 53 54 56 57 60 63 67 71 75 79 83 85 87 88 89 89 88 88 89 88 88 87 86 84 83 82 81 80 78 77 75 74 73 72 72 71 70 69 69 69 69 68 67 66 65 65 64 64 62 60 58 57 56 57 57 57 58 59 59 61 62 64 65 67
26 26 26 27 27 26 26 25 24 24 25 26 28 30 32 34 36 37 39 42 43 45 47 48 49 51 54 57 61 64 68 72 75 78 79 80 81 81 81 81 81 80 80 80 79 78 76 75 75 74 74 73 71 70 68 67 66 66 66 66 65 64 64 63 62 62 62 61 59 57 56 55 55 55 56 57 57 57 58 60 61 63 64 65 66
25 25 25 25 24 24 23 21 21 20 20 20 21 22 25 27 29 31 33 35 37 38 40 41 42 44 46 48 52 55 57 59 61 64 66 67 69 70 72 73 73 73 72 71 71 71 70 69 69 69 68 67 66 64 63 62 61 61 60 60 60 59 59 59 59 58 57 56 54 53 52 53 54 54 55 56 57 57 59 61 62 63 64 65 67
22 21 21 21 20 20 20 19 18 18 18 17 16 16 17 19 21 24 27 29 30 32 33 34 36 37 39 41 43 44 45 46 48 49 52 54 56 59 61 62 63 63 63 62 63 63 63 63 63 63 63 63 61 60 59 58 57 56 55 55 55 56 56 56 55 54 52 50 49 50 50 51 52 54 54 56 57 58 60 61 63 64 64 66 67
17 16 16 16 16 17 18 18 17 16 16 15 14 13 13 13 13 15 17 20 22 24 26 27 29 30 32 33 34 35 35 37 38 40 42 43 45 47 49 50 51 52 52 53 54 55 56 57 57 57 57 56 54 53 52 52 52 52 52 53 54 54 53 52 51 49 48 47 47 48 49 50 51 53 54 56 57 59 61 62 63 64 66 67 69
14 14 14 13 13 14 16 17 16 15 14 13 13 12 11 10 9 9 10 12 14 16 18 20 22 23 25 26 28 29 30 31 32 34 35 36 37 38 38 39 40 42 43 45 47 48 49 49 49 48 47 46 45 46 46 47 48 49 50 50 50 50 48 47 46 45 45 45 46 47 48 49 51 52 54 56 58 60 62 63 64 65 67 68 70
12 12 12 11 10 11 13 14 15 14 13 13 12 11 10 9 8 8 8 8 9 11 12 14 16 17 20 22 23 25 26 27 27 28 29 29 30 29 29 30 33 35 37 39 39 39 40 40 40 40 40 41 42 43 44 45 45 46 46 46 45 44 44 43 43 43 43 44 45 47 48 49 51 53 55 57 59 60 62 64 65 66 68 69 72
10 10 9 8 8 9 10 11 12 12 11 10 10 9 9 9 8 7 6 6 7 8 10 12 13 15 16 18 20 21 22 22 23 23 22 22 21 21 23 27 30 33 34 34 32 30 30 32 35 37 38 39 40 41 42 42 42 42 41 41 41 40 40 41 41 41 42 44 45 47 49 50 52 54 55 57 59 61 63 64 66 68 69 71 73
11 9 7 6 6 6 8 9 9 9 9 7 6 5 5 5 5 6 6 5 5 6 8 9 11 12 14 15 16 18 18 19 19 18 18 18 18 20 23 26 28 29 29 29 27 26 27 30 33 36 38 39 40 40 39 38 38 38 37 38 38 38 39 39 40 41 43 44 46 48 50 51 53 54 56 58 60 62 64 66 67 69 71 73 75
11 10 8 7 6 5 6 7 8 8 8 8 7 6 5 5 5 6 7 7 7 7 8 9 10 11 12 13 14 15 15 16 17 17 18 20 21 23 25 26 24 24 24 25 26 27 30 33 35 37 38 37 37 36 35 34 34 35 35 36 37 38 39 40 41 42 44 45 47 49 50 52 53 55 57 59 61 63 65 67 69 71 73 75 77
Wind_Direction
267 262 260 261 264 266 266 266 267 266 264 262 261 260 260 259 257 256 257 258 260 261 261 262 263 264 265 266 267 267 268 268 268 268 269 269 270 271 272 273 273 274 274 275 275 275 276 276 277 277 277 276 275 274 274 274 274 274 275 276 277 277 278 278 279 281 282 282 283 284 285 286 287 288 289 290 290 290 290 291 293 295 294 291 289
266 266 264 264 265 266 265 266 267 265 262 260 259 259 258 258 257 256 256 257 259 260 261 262 263 264 265 267 268 269 270 270 270 270 270 270 270 270 271 272 273 273 273 273 273 273 273 274 274 275 274 274 273 273 273 274 274 275 276 277 278 278 278 278 279 281 282 283 284 284 285 286 286 287 287 288 288 288 289 291 294 294 290 286 285
260 263 265 265 267 268 266 265 264 262 259 257 258 259 258 257 256 255 256 256 258 260 261 261 262 264 265 268 270 271 272 272 272 271 271 271 271 270 270 270 271 271 271 270 270 270 271 272 272 273 273 273 272 272 272 273 274 275 276 277 278 278 278 278 279 280 282 284 285 285 285 286 285 285 286 286 286 285 287 290 293 291 286 284 283
256 258 260 261 264 264 263 262 262 263 262 258 257 258 258 256 255 254 255 255 256 258 260 262 263 265 268 270 271 272 272 272 272 272 272 272 271 270 269 269 269 269 269 269 269 270 270 271 271 271 271 271 271 271 271 272 273 274 275 275 275 275 276 277 278 280 282 285 286 286 286 285 284 284 284 284 283 282 285 289 289 285 283 283 283
257 259 260 260 261 262 263 265 265 267 266 263 262 264 263 260 258 256 255 255 256 258 261 264 267 269 272 273 273 272 272 272 272 273 273 273 272 271 270 269 268 267 267 268 269 269 269 269 269 269 270 270 269 270 270 271 273 273 274 274 274 274 276 277 279 281 283 284 286 286 285 284 283 283 283 282 280 281 284 286 284 281 280 281 281
262 263 263 262 262 263 265 269 269 269 268 267 269 272 272 271 267 262 261 262 262 263 265 267 269 271 274 275 275 275 273 273 273 273 274 275 274 273 272 270 269 268 268 268 268 268 268 268 267 268 268 268 268 269 271 272 273 274 274 274 275 276 278 280 281 282 284 285 285 285 284 282 282 282 281 279 279 281 283 282 280 279 280 280 280
267 267 267 267 266 267 269 271 273 273 273 272 272 273 275 275 272 268 268 270 270 270 270 270 271 272 273 275 276 275 274 274 274 274 275 275 276 275 274 272 271 269 268 267 266 266 266 266 266 267 267 268 270 271 272 273 274 274 274 275 277 279 280 282 283 283 284 285 284 283 282 281 280 279 278 278 280 281 280 278 277 278 279 279 279
269 269 270 270 270 270 271 272 273 275 275 274 274 274 274 274 271 268 269 271 272 272 271 271 271 271 272 273 274 274 274 273 273 274 274 274 274 274 273 272 270 268 267 266 265 265 265 265 266 267 268 270 271 272 273 273 274 274 276 277 279 281 282 283 283 283 283 283 282 280 279 278 277 276 277 278 280 280 278 277 276 277 277 278 277
271 270 270 271 271 272 272 272 273 274 274 274 274 274 273 272 269 267 267 268 269 269 269 269 268 269 270 271 272 272 272 272 272 272 272 272 271 271 270 270 269 267 265 265 265 264 265 265 267 268 269 270 271 272 273 274 275 276 278 279 281 282 282 282 282 282 281 280 279 278 277 276 275 275 276 278 279 278 277 276 276 276 276 275 276
272 271 270 270 270 271 272 272 272 273 273 272 272 272 271 270 268 267 266 266 266 267 267 267 266 266 267 267 268 269 270 271 271 271 270 269 269 269 268 268 267 266 266 265 265 265 266 267 268 269 270 272 273 273 274 274 275 277 279 280 281 281 281 281 281 280 279 279 278 276 275 275 274 275 276 277 277 277 276 275 275 275 274 274 275
271 271 270 269 269 269 269 270 270 270 270 270 269 269 269 268 267 266 265 265 265 265 265 265 265 265 264 264 265 267 269 270 269 267 266 266 266 266 267 267 266 266 266 266 266 267 268 269 270 271 271 272 273 272 272 273 275 277 278 279 279 279 279 280 280 279 279 278 276 275 274 274 274 274 275 276 275 275 274 274 274 273 273 274 273
268 267 266 265 264 265 266 266 266 266 265 266 267 267 267 267 267 266 265 263 263 263 264 264 264 264 264 263 263 265 267 266 264 263 263 263 263 263 264 266 266 266 266 266 267 267 269 270 271 271 272 272 272 271 272 274 275 276 277 277 277 278 278 279 279 278 278 276 275 274 274 273 273 273 274 274 274 274 273 273 273 273 274 275 273
266 263 260 260 260 261 261 262 262 261 261 262 264 265 266 266 266 265 264 263 263 263 264 264 263 263 264 264 264 267 266 263 261 261 262 262 262 262 263 264 265 265 265 265 266 268 269 271 273 273 272 271 270 271 272 273 274 274 274 275 277 277 277 277 278 277 277 275 274 274 273 273 273 273 273 273 273 273 272 272 273 273 274 274 273
266 261 256 256 257 258 259 260 260 259 259 259 260 262 264 265 265 264 263 262 263 264 264 264 264 264 264 264 266 267 265 261 260 261 262 263 263 262 263 263 263 264 265 266 268 270 273 276 276 274 271 269 268 270 272 273 273 273 274 276 276 276 275 276 276 276 275 275 274 274 274 274 273 272 272 272 272 272 272 272 273 273 273 274 276
264 261 257 255 256 256 256 258 259 260 259 259 260 261 262 263 264 264 263 262 263 264 264 264 264 264 265 266 266 266 264 261 261 262 263 263 263 262 263 264 265 266 268 270 272 275 277 278 276 272 269 266 267 270 272 273 272 272 274 275 274 273 274 275 275 275 275 275 274 274 274 273 272 272 272 272 272 272 272 273 273 274 275 277 282
263 260 257 257 259 259 258 257 257 258 259 260 261 263 264 265 266 266 265 264 263 264 263 263 263 264 265 266 266 266 265 264 263 263 263 263 262 262 264 266 268 270 272 273 275 276 276 274 271 268 266 265 268 270 271 271 271 272 272 272 271 271 273 274 274 274 275 275 275 274 274 272 271 272 273 273 273 273 273 274 275 277 279 283 287
264 262 260 259 260 261 261 261 260 260 259 261 263 266 268 269 269 268 266 265 264 264 262 261 261 261 262 264 265 266 266 265 264 263 262 262 263 265 268 270 271 272 273 274 274 272 271 269 268 266 265 266 268 269 269 269 269 269 269 269 269 271 273 274 275 275 275 275 274 273 272 271 272 273 273 273 274 274 275 276 279 281 284 288 291
264 264 263 262 262 262 262 263 264 264 262 262 263 265 268 270 271 269 266 264 263 262 261 260 259 259 260 261 262 263 264 264 263 262 262 264 266 269 271 272 273 273 273 271 270 268 269 269 269 267 266 266 267 265 264 265 266 265 266 267 267 268 272 275 276 276 275 274 273 271 270 271 272 273 274 274 276 277 278 280 283 285 288 290 292
261 262 262 263 264 264 265 264 263 264 264 263 262 263 264 266 267 266 263 261 261 260 260 260 259 259 260 260 260 261 261 262 262 263 265 268 270 272 273 272 272 272 270 269 268 269 270 270 269 267 265 265 265 261 260 261 261 261 264 265 263 264 271 277 278 277 275 273 271 270 269 270 272 273 275 277 278 280 282 284 287 288 290 293 295
260 260 261 262 264 265 266 266 265 264 265 265 263 262 261 260 259 259 258 258 259 259 259 259 260 262 263 264 264 265 265 265 265 266 268 269 271 272 271 270 270 269 268 268 268 269 269 268 267 267 265 265 264 260 258 258 258 259 263 264 263 265 271 277 278 276 274 271 270 269 268 269 272 274 277 279 281 284 287 288 290 292 293 296 298
261 260 261 263 264 265 264 265 265 264 264 265 263 260 258 257 256 256 256 256 257 258 259 260 261 263 264 266 267 268 269 270 269 269 268 268 269 269 267 267 267 267 267 268 268 268 268 266 265 264 264 265 264 259 257 256 257 260 265 267 266 268 272 275 276 275 273 270 269 267 267 270 273 275 277 280 284 288 290 291 293 295 297 299 301
264 264 263 263 262 261 261 262 263 263 263 263 261 258 255 254 254 254 254 254 255 256 258 260 261 262 263 264 265 267 269 270 271 270 268 267 267 266 266 266 266 266 267 268 269 268 266 263 261 260 262 265 262 257 255 254 256 261 266 268 269 271 273 274 274 273 271 269 267 267 268 271 274 276 278 282 287 289 291 293 295 297 298 300 302
264 264 262 259 257 256 258 260 262 264 265 262 258 255 253 252 252 252 252 253 253 255 257 259 260 261 262 262 263 264 265 266 268 268 267 268 268 266 265 264 264 264 264 266 267 267 262 258 256 257 259 262 260 257 256 256 258 263 268 269 271 272 273 273 273 272 271 269 267 268 270 272 273 276 281 285 288 290 292 294 296 297 299 301 303
261 260 257 254 253 255 257 259 262 265 264 259 256 254 253 252 251 252 253 253 253 255 257 258 258 259 260 260 260 261 262 262 263 264 265 267 267 266 263 262 262 262 261 263 265 263 259 255 255 258 259 258 258 260 261 261 263 266 268 270 271 272 272 272 272 272 270 269 268 269 270 271 275 279 283 287 289 290 292 294 296 297 298 300 302
258 256 254 253 253 256 257 259 259 260 258 257 257 257 255 253 253 253 253 253 254 255 257 258 258 258 259 259 259 259 260 261 262 264 265 266 266 265 262 259 259 260 261 263 262 259 258 257 257 258 258 255 256 261 265 265 267 268 269 270 271 271 271 271 271 270 269 268 267 268 270 273 277 281 285 288 290 291 293 295 296 297 298 300 301
255 254 253 253 253 255 257 256 254 253 255 259 261 260 259 257 256 255 255 255 255 255 257 259 258 258 259 260 260 260 260 260 261 263 264 265 265 264 260 256 255 258 261 262 258 257 260 260 257 256 256 255 257 262 265 267 269 270 271 271 270 269 268 268 268 268 267 267 267 268 271 275 279 283 287 290 291 292 293 295 296 297 298 299 300
256 254 254 254 253 253 254 253 250 250 254 259 262 261 260 258 257 256 256 257 257 256 256 257 258 260 261 261 260 260 261 261 263 264 264 264 264 262 259 255 254 256 260 259 256 256 258 257 255 255 256 258 261 266 267 268 269 270 270 268 267 266 266 266 266 266 266 266 267 269 273 277 282 286 289 291 291 292 294 295 296 297 298 299 299
257 256 255 255 254 254 252 251 250 252 254 258 260 261 259 258 257 256 256 257 257 257 256 256 257 260 260 260 259 260 261 262 264 264 265 265 263 262 259 256 255 256 258 257 255 254 255 256 257 260 263 266 268 268 268 268 268 267 267 266 264 264 264 264 265 265 265 267 269 272 276 281 285 288 290 291 291 292 293 295 296 296 297 297 298
258 257 256 256 256 256 254 253 252 254 256 258 259 260 259 259 258 256 256 255 256 256 256 255 256 257 258 257 257 258 260 261 261 261 262 263 263 262 259 257 257 256 257 256 254 253 254 255 257 259 261 263 264 264 265 265 265 264 263 263 263 263 262 263 264 265 267 270 273 277 281 285 288 289 290 291 290 291 292 293 294 295 296 296 297
261 259 258 257 257 257 256 255 254 255 256 257 259 259 259 259 258 256 256 255 254 254 255 255 254 255 255 255 254 255 257 258 257 257 257 257 257 258 257 256 255 254 255 255 254 252 253 255 257 258 257 256 257 258 260 262 262 262 263 263 262 261 261 263 266 270 274 277 280 283 286 288 290 291 291 290 289 289 289 290 291 293 295 296 296
263 261 260 259 259 258 257 255 255 255 256 257 258 259 258 258 256 255 256 255 254 253 253 253 252 252 253 253 252 253 255 256 255 254 252 250 250 250 251 251 252 253 254 254 252 251 252 256 258 258 255 253 254 255 257 259 261 261 261 260 259 260 263 268 273 278 281 284 286 288 289 290 291 291 290 289 288 287 287 288 290 292 294 295 296
266 264 262 261 260 259 258 257 255 255 255 255 257 258 258 258 256 254 254 255 254 252 252 252 252 251 250 250 249 250 253 255 254 251 249 248 247 246 246 247 248 250 251 252 252 252 252 254 254 254 253 252 254 255 257 258 258 257 258 260 263 267 271 276 280 283 284 286 287 289 290 291 290 289 289 288 287 286 286 287 289 291 294 295 296
268 267 265 263 262 260 260 259 258 256 256 255 256 257 258 258 257 255 253 252 252 251 250 251 251 250 249 248 249 250 252 254 254 252 250 249 247 246 245 246 246 247 249 251 252 252 251 249 249 250 250 252 254 257 259 258 258 261 266 270 272 275 278 280 283 284 285 286 288 289 290 290 289 289 288 288 287 286 285 286 288 291 294 295 296
270 269 268 267 265 264 263 262 260 259 258 257 257 257 257 257 257 256 253 251 250 249 249 248 247 247 246 246 246 249 251 252 253 252 251 249 247 246 245 245 245 246 248 249 250 250 248 247 248 250 251 252 254 258 261 263 265 269 273 275 276 278 279 281 282 283 284 285 287 288 289 289 289 288 288 287 286 285 285 286 289 292 294 295 296
271 270 270 269 268 267 266 265 263 262 260 259 258 258 257 256 255 253 252 250 248 247 246 244 243 243 242 242 242 244 246 248 251 253 252 249 247 246 246 245 244 245 246 246 247 248 249 250 253 255 257 258 259 262 265 267 270 272 274 275 276 277 277 278 278 279 281 283 285 286 288 288 287 287 286 286 285 284 285 287 290 293 294 295 296
272 272 271 270 269 269 267 266 265 264 262 260 259 258 257 256 254 252 250 249 247 246 244 243 242 241 240 240 241 241 242 245 250 254 253 250 248 248 249 248 246 245 246 246 247 249 252 253 256 260 263 265 266 266 268 270 272 273 275 276 276 275 275 275 276 277 278 280 281 283 285 286 285 285 285 284 284 284 286 288 291 293 294 295 296
274 273 272 271 270 269 268 267 266 265 263 261 260 259 258 257 256 254 251 250 248 246 244 243 242 241 241 241 242 243 244 247 251 253 253 251 250 251 251 251 249 247 247 247 248 251 255 257 260 264 267 268 269 269 269 270 272 273 274 275 274 275 276 276 276 276 275 275 276 279 282 283 283 283 283 283 283 285 287 289 291 293 294 295 295
277 276 274 273 271 270 269 268 266 265 264 263 261 260 258 257 256 255 253 251 249 247 245 244 243 243 244 244 245 247 248 250 252 254 253 252 251 252 252 252 252 251 250 250 251 254 257 259 262 264 267 268 269 269 269 270 270 271 272 273 274 275 276 276 276 274 273 272 273 275 278 281 281 281 281 282 283 285 287 290 291 292 293 294 294
282 280 278 277 275 274 272 271 269 268 267 265 263 261 260 258 257 255 254 253 251 249 247 245 244 244 245 246 247 249 250 251 253 254 253 252 251 251 252 252 253 253 255 255 256 258 260 261 262 264 266 267 268 268 268 268 269 270 271 272 273 275 275 275 275 274 272 271 272 274 277 279 279 280 280 281 283 286 287 289 290 292 292 292 292
285 283 282 281 280 279 278 276 274 272 270 268 265 263 261 260 258 256 254 253 252 251 249 247 246 245 245 246 247 248 250 250 251 251 251 250 251 252 252 253 253 254 256 259 261 262 263 263 264 265 266 267 267 267 267 267 268 268 269 270 271 272 273 273 273 272 272 271 273 275 277 278 278 279 280 282 283 285 287 288 290 291 291 291 292
287 286 286 285 284 284 282 280 278 276 273 270 267 265 263 261 259 257 255 253 253 252 251 250 249 248 247 247 247 248 249 249 249 248 249 250 252 253 253 254 255 256 258 260 261 262 263 265 265 266 266 266 265 265 264 265 265 266 266 267 268 269 270 271 271 271 271 272 274 275 276 277 277 278 280 281 283 285 287 289 290 290 290 291 293
290 289 289 288 287 287 286 284 282 280 276 273 270 267 264 262 259 257 255 254 253 253 252 251 251 250 249 248 248 248 248 249 249 249 250 251 253 254 255 256 257 258 259 260 261 262 263 264 265 265 264 263 263 262 263 263 263 264 264 265 266 267 268 269 270 271 272 273 274 274 275 276 276 277 279 281 283 285 287 289 289 289 290 292 294
290 290 289 289 289 289 289 288 287 284 282 278 274 269 265 262 259 257 255 254 253 253 253 252 251 250 249 248 247 247 247 248 248 249 250 251 253 254 255 255 256 257 258 259 260 261 262 262 262 262 262 262 262 262 262 262 262 262 262 263 265 266 267 268 269 270 271 271 272 272 273 274 275 277 279 282 284 285 287 288 288 289 291 293 296
291 290 290 290 290 290 291 291 290 289 287 284 279 274 269 264 260 257 254 253 252 251 250 250 249 248 247 246 245 245 245 246 247 247 248 249 250 251 252 253 254 255 256 257 258 259 259 259 259 259 259 259 259 260 260 260 260 260 261 263 264 265 266 267 267 268 269 269 270 270 272 273 275 278 280 282 284 286 287 288 289 291 293 295 298
296 295 294 295 295 295 296 296 294 292 291 290 287 282 275 268 262 257 254 251 249 248 247 246 245 244 244 243 243 243 243 244 245 246 246 247 248 248 249 250 252 253 255 255 255 256 256 256 255 255 255 255 256 256 257 258 258 259 261 262 264 265 265 265 265 266 266 267 268 269 271 274 276 279 281 283 284 286 288 289 290 292 294 296 298
304 303 300 299 300 302 302 301 298 295 291 290 289 287 283 276 268 261 255 250 247 245 243 242 241 241 241 241 241 241 241 242 243 244 245 245 246 247 247 248 249 250 251 251 251 252 253 253 253 253 253 253 254 255 256 257 258 259 260 261 262 263 262 262 262 263 264 265 267 269 272 275 277 280 282 283 285 287 289 290 292 294 296 297 299
310 306 300 295 296 299 301 300 298 294 289 286 286 287 287 286 282 274 265 257 251 247 244 242 241 240 239 239 237 237 237 239 240 242 243 244 245 245 245 245 246 245 245 246 246 247 248 249 250 249 249 249 251 253 254 255 256 257 258 259 259 259 259 259 260 262 263 266 268 271 273 276 278 280 282 284 286 288 290 291 294 296 297 298 300
315 306 297 289 284 285 289 291 289 287 284 282 283 284 284 285 286 284 279 272 265 258 254 249 244 241 238 236 235 235 236 239 241 242 241 241 240 241 242 243 244 243 241 241 242 243 244 245 244 243 243 246 249 250 251 252 253 254 255 256 256 256 257 258 260 262 265 268 270 272 274 276 278 281 283 286 288 290 291 293 295 296 298 299 301
329 319 308 295 280 276 280 283 283 284 284 285 285 285 282 279 277 277 275 269 260 256 252 249 246 242 237 234 233 234 235 237 237 235 233 234 237 240 245 248 248 245 242 238 237 240 244 244 242 240 241 244 247 249 249 250 250 251 252 252 253 254 256 259 262 265 267 269 272 274 275 277 280 282 285 288 289 291 293 295 296 298 299 301 303
358 354 345 331 313 300 295 291 287 285 285 285 283 281 277 273 269 268 265 253 238 229 226 225 225 225 223 223 225 226 226 226 225 224 228 234 240 248 254 255 251 246 241 236 234 237 244 245 243 241 241 243 245 246 246 246 246 247 248 250 253 255 258 261 264 266 269 271 273 275 277 279 282 285 287 290 292 293 295 297 298 300 301 303 304
15 15 13 11 7 354 333 316 305 296 290 285 277 263 246 230 229 237 243 242 237 232 227 222 220 220 220 222 222 222 224 227 230 234 240 243 246 252 258 256 246 237 234 233 233 237 242 243 241 240 240 240 240 240 240 241 243 245 248 251 255 258 260 263 265 268 269 271 274 276 279 282 284 287 289 292 294 296 297 299 300 302 303 304 305
Height
5641 5642 5642 5642 5644 5644 5643 5642 5642 5640 5638 5636 5636 5637 5637 5637 5637 5637 5637 5638 5639 5639 5640 5641 5641 5641 5642 5643 5644 5645 5645 5646 5646 5646 5647 5647 5647 5646 5645 5645 5645 5645 5645 5646 5646 5646 5646 5646 5646 5647 5647 5647 5648 5648 5648 5648 5648 5649 5649 5648 5648 5648 5647 5646 5645 5640 5637 5639 5639 5637 5637 5637 5631 5628 5629 5628 5626 5625 5625 5625 5626 5626 5624 5623 5621
5630 5630 5631 5633 5635 5635 5634 5634 5634 5631 5629 5628 5627 5628 5628 5628 5627 5627 5627 5628 5629 5629 5629 5630 5630 5631 5632 5634 5635 5636 5637 5637 5637 5637 5638 5638 5638 5638 5637 5637 5637 5637 5637 5637 5637 5637 5637 5638 5638 5638 5638 5639 5639 5639 5639 5639 5639 5639 5639 5639 5639 5639 5638 5638 5637 5634 5629 5628 5631 5631 5630 5630 5627 5623 5622 5622 5620 5617 5616 5617 5618 5618 5617 5616 5615
5621 5621 5622 5623 5625 5625 5625 5625 5622 5620 5621 5621 5620 5620 5620 5619 5618 5617 5618 5618 5618 5619 5619 5619 5619 5620 5622 5624 5626 5626 5627 5627 5627 5628 5629 5629 5630 5629 5629 5628 5628 5628 5628 5628 5628 5628 5629 5629 5629 5629 5630 5630 5630 5629 5629 5630 5630 5630 5630 5630 5630 5629 5630 5629 5628 5627 5623 5619 5620 5622 5622 5622 5620 5617 5615 5615 5614 5612 5611 5611 5611 5610 5608 5608 5608
5612 5612 5612 5612 5614 5615 5615 5613 5611 5612 5614 5613 5613 5612 5611 5610 5609 5608 5609 5608 5609 5610 5610 5609 5609 5611 5612 5614 5615 5615 5616 5616 5617 5618 5619 5620 5620 5620 5620 5620 5619 5619 5619 5618 5618 5619 5620 5620 5620 5620 5620 5621 5620 5620 5620 5621 5621 5622 5622 5621 5621 5620 5620 5620 5619 5619 5617 5613 5611 5612 5614 5614 5612 5610 5608 5607 5607 5606 5606 5606 5604 5602 5601 5600 5600
5602 5602 5603 5603 5604 5604 5604 5602 5602 5604 5605 5604 5604 5603 5602 5601 5600 5600 5599 5599 5600 5601 5600 5600 5601 5602 5604 5604 5604 5604 5605 5606 5607 5608 5609 5610 5610 5610 5611 5611 5610 5610 5609 5609 5609 5609 5610 5610 5610 5610 5611 5611 5611 5611 5611 5612 5612 5612 5612 5612 5611 5611 5610 5610 5610 5610 5609 5607 5603 5602 5604 5604 5603 5602 5600 5599 5598 5599 5599 5598 5597 5595 5594 5593 5592
5592 5592 5593 5594 5595 5595 5594 5593 5593 5594 5594 5593 5594 5594 5593 5593 5592 5592 5591 5590 5591 5591 5592 5592 5593 5594 5595 5594 5594 5595 5595 5596 5597 5598 5599 5599 5600 5600 5601 5601 5601 5601 5601 5600 5600 5600 5601 5601 5601 5601 5601 5601 5601 5601 5602 5602 5602 5602 5602 5601 5601 5600 5599 5599 5599 5600 5600 5599 5597 5595 5594 5594 5594 5593 5591 5590 5590 5590 5590 5589 5588 5587 5586 5586 5584
5582 5581 5581 5582 5584 5583 5582 5581 5581 5582 5583 5583 5583 5583 5583 5584 5584 5583 5582 5582 5583 5583 5583 5583 5584 5584 5585 5585 5585 5585 5586 5586 5588 5589 5590 5589 5589 5590 5591 5591 5591 5591 5591 5591 5591 5591 5591 5592 5592 5591 5591 5591 5592 5592 5592 5592 5592 5592 5592 5591 5590 5589 5589 5589 5589 5589 5590 5590 5589 5588 5586 5585 5585 5584 5583 5581 5581 5581 5581 5582 5581 5579 5577 5577 5575
5571 5570 5569 5570 5571 5571 5571 5570 5570 5571 5572 5572 5571 5571 5572 5572 5574 5573 5573 5573 5574 5574 5574 5574 5574 5574 5575 5575 5576 5576 5576 5577 5578 5579 5580 5579 5579 5579 5579 5580 5580 5581 5582 5582 5582 5582 5582 5583 5583 5582 5582 5582 5583 5583 5583 5583 5583 5582 5582 5581 5580 5580 5579 5579 5579 5579 5580 5581 5580 5580 5578 5576 5575 5575 5574 5572 5572 5571 5572 5573 5573 5572 5570 5568 5566
5558 5558 5557 5557 5558 5558 5559 5558 5558 5559 5560 5560 5560 5560 5560 5561 5562 5562 5562 5563 5563 5563 5564 5564 5564 5565 5566 5566 5566 5566 5566 5568 5569 5569 5569 5568 5568 5568 5568 5569 5570 5571 5572 5572 5573 5573 5573 5573 5573 5573 5573 5573 5573 5573 5573 5574 5573 5573 5572 5572 5571 5570 5570 5569 5570 5570 5571 5572 5571 5570 5569 5568 5566 5566 5565 5564 5563 5562 5562 5563 5564 5563 5562 5560 5558
5544 5544 5545 5545 5545 5545 5546 5546 5546 5546 5547 5548 5548 5549 5549 5550 5551 5552 5553 5552 5552 5552 5552 5553 5554 5555 5555 5556 5556 5556 5557 5558 5559 5559 5558 5558 5557 5557 5558 5559 5560 5560 5561 5562 5563 5564 5564 5564 5563 5563 5563 5563 5564 5564 5564 5564 5564 5564 5563 5563 5562 5561 5561 5561 5561 5562 5562 5562 5561 5560 5560 5559 5557 5557 5556 5555 5554 5553 5553 5554 5554 5553 5552 5552 5550
5531 5531 5532 5532 5532 5532 5533 5533 5533 5534 5534 5535 5536 5537 5537 5538 5539 5541 5542 5542 5542 5541 5541 5542 5544 5544 5544 5544 5545 5546 5547 5548 5549 5549 5548 5547 5547 5546 5547 5548 5549 5550 5551 5552 5553 5553 5553 5553 5553 5552 5553 5553 5554 5554 5555 5555 5554 5554 5554 5554 5553 5552 5552 5552 5552 5553 5553 5553 5551 5550 5550 5549 5548 5547 5546 5546 5545 5544 5543 5543 5544 5543 5542 5542 5542
5519 5519 5519 5519 5519 5520 5520 5521 5522 5522 5522 5522 5523 5524 5525 5526 5528 5529 5530 5531 5531 5530 5532 5533 5533 5533 5533 5533 5535 5536 5537 5537 5537 5537 5537 5537 5536 5536 5536 5537 5538 5540 5541 5542 5542 5542 5543 5543 5543 5543 5543 5544 5544 5544 5545 5545 5544 5544 5544 5544 5543 5543 5543 5543 5543 5543 5543 5543 5541 5540 5539 5539 5538 5536 5536 5536 5536 5535 5534 5534 5533 5533 5532 5531 5532
5508 5508 5508 5507 5507 5507 5508 5509 5510 5510 5511 5511 5511 5512 5513 5514 5516 5517 5518 5518 5519 5520 5521 5522 5522 5522 5522 5523 5524 5525 5526 5526 5526 5527 5527 5527 5526 5526 5526 5528 5529 5531 5532 5532 5532 5532 5533 5533 5534 5534 5534 5534 5534 5534 5535 5534 5534 5534 5534 5534 5534 5533 5533 5533 5533 5534 5533 5533 5532 5530 5529 5529 5528 5527 5527 5527 5527 5526 5525 5525 5523 5522 5522 5521 5521
5497 5497 5497 5496 5495 5496 5496 5497 5497 5498 5499 5500 5500 5501 5501 5502 5504 5505 5506 5506 5507 5509 5510 5510 5511 5511 5511 5512 5513 5513 5514 5515 5515 5516 5517 5517 5517 5517 5517 5518 5520 5521 5521 5522 5522 5522 5523 5524 5524 5524 5524 5524 5524 5524 5524 5523 5523 5523 5523 5524 5524 5523 5523 5524 5524 5524 5524 5523 5522 5520 5519 5519 5518 5518 5517 5516 5517 5516 5516 5515 5513 5511 5512 5512 5510
5485 5486 5485 5484 5484 5485 5485 5486 5486 5486 5487 5488 5489 5489 5490 5491 5492 5493 5494 5495 5496 5497 5498 5498 5499 5499 5500 5500 5501 5502 5503 5504 5505 5506 5507 5507 5507 5507 5506 5507 5509 5510 5511 5511 5512 5512 5513 5513 5513 5513 5513 5513 5513 5513 5512 5512 5512 5513 5514 5514 5514 5513 5514 5514 5514 5514 5514 5514 5513 5512 5510 5509 5509 5508 5507 5506 5506 5506 5505 5505 5503 5502 5503 5503 5501
5472 5473 5473 5473 5473 5473 5473 5474 5475 5475 5475 5476 5477 5478 5479 5480 5481 5481 5482 5484 5485 5486 5487 5487 5488 5488 5488 5488 5489 5491 5493 5494 5495 5496 5496 5496 5496 5495 5496 5497 5498 5499 5500 5500 5501 5501 5502 5502 5502 5502 5502 5502 5503 5502 5501 5501 5502 5503 5504 5504 5504 5504 5504 5504 5505 5505 5505 5504 5504 5503 5501 5499 5499 5498 5497 5496 5495 5496 5496 5496 5494 5493 5493 5494 5492
5457 5458 5459 5459 5460 5460 5461 5462 5463 5463 5463 5464 5464 5465 5466 5468 5469 5469 5469 5471 5472 5473 5475 5475 5476 5477 5477 5478 5479 5480 5482 5483 5484 5485 5485 5485 5484 5485 5486 5486 5487 5488 5489 5489 5489 5489 5490 5490 5490 5491 5492 5492 5492 5491 5491 5491 5492 5493 5494 5494 5495 5495 5494 5495 5495 5495 5495 5495 5494 5493 5491 5490 5489 5488 5486 5486 5485 5486 5487 5487 5484 5483 5482 5482 5481
5442 5443 5443 5444 5445 5446 5447 5448 5449 5450 5450 5451 5451 5452 5452 5454 5456 5456 5457 5458 5459 5460 5461 5462 5464 5465 5466 5467 5468 5470 5471 5472 5473 5473 5473 5473 5473 5475 5476 5475 5475 5476 5477 5477 5478 5478 5478 5479 5479 5481 5482 5482 5481 5481 5480 5481 5482 5483 5483 5483 5485 5486 5485 5485 5486 5486 5486 5485 5484 5483 5482 5480 5480 5478 5477 5476 5476 5477 5477 5476 5475 5473 5471 5468 5467
5428 5428 5428 5429 5429 5430 5431 5433 5435 5436 5437 5437 5437 5438 5439 5440 5442 5443 5443 5444 5446 5447 5448 5450 5451 5452 5453 5455 5456 5458 5459 5460 5460 5461 5461 5461 5462 5464 5465 5464 5464 5465 5466 5466 5467 5467 5467 5469 5470 5472 5472 5471 5470 5469 5470 5471 5472 5472 5472 5473 5475 5475 5475 5476 5477 5477 5476 5475 5474 5473 5471 5470 5469 5468 5468 5467 5466 5466 5465 5464 5463 5461 5458 5456 5452
5413 5413 5414 5415 5415 5416 5416 5416 5418 5421 5422 5423 5424 5425 5427 5428 5429 5430 5431 5431 5433 5434 5436 5437 5439 5440 5441 5442 5444 5445 5447 5448 5448 5449 5449 5449 5450 5453 5454 5453 5453 5454 5454 5455 5456 5456 5458 5460 5461 5462 5461 5459 5458 5458 5459 5461 5462 5461 5461 5463 5464 5465 5466 5468 5468 5467 5466 5464 5463 5462 5461 5459 5459 5459 5458 5457 5455 5454 5453 5450 5449 5448 5445 5444 5440
5397 5398 5399 5401 5402 5402 5402 5402 5403 5406 5407 5409 5410 5412 5414 5416 5417 5418 5419 5420 5422 5423 5424 5425 5426 5428 5429 5430 5431 5432 5434 5435 5435 5437 5438 5438 5439 5443 5444 5443 5443 5443 5443 5444 5446 5447 5449 5451 5452 5451 5450 5448 5447 5447 5449 5452 5452 5451 5452 5454 5455 5455 5457 5458 5457 5456 5456 5454 5453 5452 5450 5449 5450 5449 5447 5446 5443 5441 5439 5437 5436 5434 5431 5429 5426
5381 5383 5385 5387 5387 5388 5388 5389 5390 5392 5394 5395 5397 5399 5402 5403 5404 5406 5407 5409 5411 5412 5413 5414 5415 5417 5418 5419 5420 5420 5422 5423 5423 5425 5427 5427 5428 5432 5434 5432 5432 5432 5433 5434 5436 5438 5440 5441 5441 5440 5438 5437 5437 5438 5439 5442 5442 5442 5443 5444 5445 5446 5447 5447 5446 5445 5446 5444 5442 5441 5440 5440 5440 5438 5436 5435 5432 5429 5427 5424 5422 5420 5417 5415 5412
5364 5367 5370 5371 5372 5373 5374 5375 5376 5378 5380 5381 5382 5386 5388 5389 5391 5393 5395 5396 5399 5401 5402 5402 5404 5405 5407 5408 5409 5409 5411 5412 5413 5414 5415 5416 5417 5422 5424 5423 5422 5423 5423 5425 5427 5429 5430 5430 5429 5428 5427 5427 5428 5429 5429 5430 5432 5435 5435 5434 5435 5437 5437 5436 5435 5435 5435 5434 5433 5432 5430 5430 5429 5427 5425 5424 5421 5418 5415 5413 5411 5408 5404 5403 5400
5348 5351 5354 5355 5356 5357 5359 5361 5363 5364 5366 5366 5367 5371 5373 5375 5378 5380 5382 5384 5386 5388 5390 5391 5392 5394 5396 5397 5398 5399 5400 5402 5403 5403 5405 5406 5407 5410 5413 5414 5413 5413 5415 5416 5418 5419 5419 5418 5417 5417 5417 5418 5419 5419 5420 5421 5424 5428 5427 5424 5425 5426 5425 5424 5424 5424 5424 5424 5423 5422 5420 5420 5419 5416 5415 5413 5409 5407 5404 5402 5400 5397 5393 5392 5390
5333 5335 5337 5339 5341 5342 5343 5346 5349 5350 5351 5352 5353 5356 5358 5360 5363 5366 5368 5370 5373 5376 5377 5379 5381 5382 5384 5386 5387 5388 5389 5390 5392 5393 5394 5396 5397 5400 5403 5405 5404 5404 5406 5407 5408 5408 5407 5407 5407 5407 5407 5408 5408 5409 5412 5413 5415 5417 5417 5416 5416 5415 5414 5414 5414 5414 5414 5413 5412 5411 5410 5409 5409 5406 5404 5402 5399 5395 5393 5391 5388 5386 5382 5381 5379
5318 5320 5322 5324 5325 5326 5328 5332 5334 5335 5337 5338 5340 5342 5344 5346 5349 5352 5354 5357 5359 5362 5364 5366 5368 5370 5372 5374 5375 5376 5377 5379 5381 5382 5383 5385 5386 5388 5392 5395 5395 5395 5396 5397 5397 5396 5396 5396 5396 5396 5397 5399 5400 5402 5403 5404 5404 5406 5406 5406 5405 5404 5404 5405 5405 5404 5404 5403 5402 5401 5399 5398 5397 5395 5393 5391 5387 5383 5382 5380 5377 5374 5371 5370 5369
5301 5304 5306 5307 5309 5311 5313 5315 5318 5320 5322 5324 5326 5328 5331 5333 5335 5338 5341 5344 5346 5348 5350 5353 5356 5358 5360 5362 5362 5364 5366 5368 5370 5372 5372 5373 5375 5376 5379 5383 5386 5386 5386 5386 5386 5386 5386 5385 5385 5386 5387 5389 5392 5392 5392 5392 5394 5395 5395 5394 5394 5394 5394 5395 5395 5394 5394 5393 5392 5390 5389 5387 5386 5384 5382 5379 5376 5372 5370 5368 5366 5363 5360 5358 5358
5282 5285 5289 5290 5292 5295 5296 5298 5301 5303 5306 5309 5311 5314 5317 5319 5321 5325 5329 5331 5333 5335 5337 5340 5344 5347 5349 5350 5351 5353 5356 5359 5361 5361 5359 5359 5361 5363 5366 5371 5374 5375 5376 5376 5375 5374 5374 5374 5375 5376 5377 5379 5381 5381 5381 5382 5383 5383 5383 5383 5384 5385 5385 5385 5384 5383 5383 5383 5381 5380 5379 5377 5375 5372 5370 5367 5364 5360 5358 5356 5354 5353 5349 5347 5347
5264 5267 5271 5272 5275 5278 5279 5281 5283 5285 5288 5291 5295 5298 5302 5305 5307 5312 5317 5319 5321 5322 5324 5328 5332 5334 5336 5338 5341 5343 5346 5349 5349 5348 5347 5348 5350 5352 5355 5358 5361 5364 5366 5366 5364 5362 5363 5365 5367 5368 5368 5369 5370 5370 5370 5371 5372 5372 5372 5373 5374 5375 5375 5374 5374 5373 5373 5372 5371 5369 5368 5366 5364 5361 5359 5356 5352 5349 5346 5344 5343 5341 5339 5336 5334
5245 5249 5253 5254 5256 5259 5261 5263 5266 5267 5269 5272 5277 5282 5287 5290 5293 5298 5304 5307 5308 5309 5311 5315 5319 5321 5323 5327 5331 5333 5336 5337 5337 5337 5337 5338 5339 5340 5342 5345 5348 5352 5354 5355 5354 5352 5353 5356 5358 5359 5359 5359 5360 5360 5360 5360 5361 5363 5364 5365 5365 5365 5365 5364 5364 5364 5363 5362 5361 5360 5357 5355 5353 5351 5348 5346 5343 5339 5335 5333 5332 5330 5328 5325 5324
5225 5230 5235 5236 5238 5239 5241 5244 5249 5250 5252 5255 5258 5263 5270 5275 5279 5283 5288 5292 5295 5296 5298 5301 5305 5308 5311 5316 5319 5322 5324 5326 5327 5327 5327 5326 5327 5329 5330 5331 5335 5339 5341 5343 5343 5342 5343 5346 5348 5349 5350 5350 5350 5350 5350 5351 5353 5354 5354 5355 5355 5354 5354 5354 5355 5354 5353 5352 5350 5349 5347 5345 5343 5340 5338 5335 5333 5329 5326 5323 5321 5319 5317 5314 5312
5206 5211 5216 5218 5219 5220 5221 5225 5230 5234 5236 5239 5241 5244 5250 5257 5263 5268 5272 5274 5278 5282 5285 5288 5291 5295 5299 5303 5306 5309 5312 5314 5315 5316 5316 5316 5317 5318 5318 5320 5323 5327 5330 5332 5333 5333 5335 5337 5339 5339 5340 5340 5340 5340 5341 5342 5343 5343 5343 5343 5343 5344 5344 5345 5344 5342 5342 5341 5339 5337 5336 5334 5332 5330 5328 5325 5323 5320 5317 5313 5311 5309 5306 5304 5302
5189 5193 5197 5199 5201 5202 5204 5207 5211 5215 5219 5222 5225 5228 5231 5237 5244 5251 5254 5256 5260 5265 5270 5275 5279 5283 5286 5289 5293 5296 5299 5302 5304 5305 5306 5307 5307 5307 5307 5309 5312 5316 5320 5323 5324 5324 5326 5328 5330 5330 5330 5330 5330 5331 5332 5333 5333 5332 5333 5333 5333 5333 5333 5333 5332 5330 5330 5329 5327 5326 5324 5323 5321 5319 5317 5315 5312 5310 5307 5304 5301 5298 5295 5294 5293
5174 5176 5179 5181 5182 5185 5187 5190 5193 5197 5200 5203 5206 5209 5212 5217 5223 5229 5234 5238 5242 5248 5254 5260 5264 5268 5272 5275 5278 5282 5287 5289 5292 5294 5295 5295 5296 5295 5295 5297 5301 5306 5311 5314 5315 5315 5316 5318 5320 5320 5321 5321 5322 5322 5323 5323 5323 5323 5323 5322 5322 5323 5322 5322 5320 5319 5318 5317 5315 5314 5313 5311 5310 5308 5307 5305 5302 5300 5298 5295 5291 5289 5286 5283 5283
5160 5162 5165 5165 5166 5168 5172 5174 5176 5179 5181 5184 5187 5189 5193 5198 5203 5208 5214 5218 5224 5230 5236 5242 5248 5252 5255 5258 5262 5266 5272 5276 5279 5282 5283 5284 5284 5282 5282 5286 5292 5297 5302 5305 5305 5305 5306 5308 5308 5309 5310 5311 5312 5312 5312 5312 5312 5312 5311 5312 5313 5312 5312 5311 5310 5309 5308 5306 5304 5303 5302 5300 5299 5298 5296 5294 5291 5289 5288 5285 5282 5279 5277 5274 5272
5149 5150 5152 5152 5152 5154 5157 5159 5160 5162 5164 5167 5170 5173 5176 5179 5184 5189 5194 5198 5204 5212 5219 5224 5230 5234 5237 5242 5247 5251 5256 5261 5265 5267 5270 5271 5269 5268 5271 5277 5282 5287 5292 5295 5296 5295 5295 5295 5295 5296 5297 5299 5299 5299 5299 5299 5299 5299 5300 5300 5301 5302 5301 5301 5300 5298 5297 5295 5294 5293 5292 5290 5289 5287 5286 5284 5281 5279 5278 5276 5273 5270 5267 5264 5262
5140 5140 5141 5141 5140 5142 5144 5146 5147 5148 5150 5152 5156 5158 5160 5163 5167 5172 5177 5180 5186 5193 5200 5206 5212 5217 5221 5227 5232 5236 5240 5244 5248 5251 5255 5257 5256 5257 5262 5267 5271 5275 5280 5284 5285 5283 5281 5280 5281 5282 5284 5286 5287 5287 5287 5287 5287 5287 5288 5288 5289 5290 5290 5289 5289 5288 5287 5285 5283 5282 5281 5280 5278 5277 5275 5273 5271 5269 5267 5265 5263 5261 5258 5255 5252
5133 5132 5131 5131 5131 5132 5134 5135 5135 5136 5137 5140 5142 5144 5147 5150 5153 5157 5161 5165 5169 5175 5181 5188 5194 5200 5206 5211 5215 5219 5222 5226 5231 5236 5241 5244 5245 5248 5252 5256 5259 5263 5267 5270 5271 5269 5267 5266 5269 5271 5272 5273 5275 5276 5276 5276 5276 5276 5277 5277 5277 5278 5278 5278 5278 5277 5276 5275 5273 5272 5271 5270 5268 5267 5265 5263 5262 5260 5257 5255 5253 5252 5250 5246 5243
5126 5125 5124 5124 5123 5124 5125 5126 5126 5127 5127 5129 5131 5132 5134 5138 5141 5144 5148 5151 5154 5159 5165 5171 5177 5184 5191 5194 5197 5201 5205 5210 5217 5223 5227 5228 5231 5236 5239 5243 5247 5252 5255 5257 5258 5256 5254 5254 5257 5259 5260 5262 5264 5265 5266 5266 5266 5266 5266 5266 5266 5267 5267 5267 5267 5266 5265 5264 5263 5261 5261 5260 5258 5257 5255 5253 5252 5251 5248 5246 5243 5241 5240 5238 5235
5119 5119 5118 5118 5117 5117 5117 5117 5118 5118 5119 5119 5121 5122 5124 5127 5130 5133 5136 5139 5142 5147 5152 5156 5162 5169 5174 5177 5180 5185 5190 5196 5203 5208 5210 5212 5216 5222 5227 5231 5236 5240 5243 5244 5243 5242 5241 5242 5245 5247 5249 5251 5253 5254 5255 5256 5256 5256 5255 5255 5255 5256 5256 5256 5256 5255 5254 5253 5253 5252 5251 5250 5248 5247 5245 5244 5243 5242 5240 5237 5235 5232 5230 5228 5226
5114 5113 5113 5112 5112 5111 5111 5111 5111 5111 5111 5111 5112 5113 5115 5117 5120 5122 5125 5129 5132 5136 5140 5145 5150 5154 5158 5162 5166 5170 5175 5181 5187 5192 5196 5199 5204 5209 5214 5219 5223 5225 5227 5227 5227 5228 5229 5232 5234 5237 5238 5240 5241 5243 5244 5245 5245 5245 5245 5245 5246 5246 5246 5246 5246 5245 5245 5244 5244 5243 5242 5241 5239 5238 5237 5235 5234 5233 5231 5229 5226 5223 5221 5218 5214
5109 5109 5108 5108 5107 5106 5106 5106 5105 5105 5105 5105 5106 5106 5108 5110 5111 5114 5117 5120 5123 5127 5130 5134 5139 5142 5146 5150 5154 5157 5162 5168 5174 5179 5184 5188 5192 5197 5201 5204 5208 5210 5210 5211 5213 5216 5219 5221 5223 5226 5227 5229 5231 5232 5233 5234 5235 5236 5236 5236 5237 5237 5237 5237 5237 5236 5236 5236 5235 5234 5233 5232 5231 5229 5228 5227 5226 5224 5222 5220 5218 5215 5212 5209 5204
5105 5105 5104 5103 5103 5103 5102 5102 5101 5101 5101 5101 5101 5101 5102 5103 5105 5107 5110 5112 5115 5119 5122 5125 5129 5133 5136 5140 5143 5147 5152 5158 5163 5168 5173 5176 5180 5183 5187 5190 5193 5194 5196 5199 5202 5205 5208 5210 5212 5214 5217 5218 5220 5222 5223 5224 5226 5226 5227 5227 5228 5228 5228 5228 5228 5228 5227 5227 5227 5226 5225 5224 5222 5221 5220 5218 5217 5216 5214 5212 5210 5207 5204 5200 5196
5101 5101 5100 5100 5100 5099 5099 5098 5098 5098 5098 5097 5097 5097 5098 5099 5100 5102 5104 5106 5109 5112 5114 5118 5121 5124 5128 5131 5134 5139 5144 5149 5153 5158 5161 5164 5167 5171 5174 5177 5179 5182 5185 5188 5191 5193 5196 5199 5202 5204 5207 5209 5211 5213 5214 5215 5216 5217 5218 5218 5219 5219 5220 5220 5220 5220 5220 5219 5219 5218 5217 5216 5214 5213 5212 5210 5208 5208 5206 5204 5201 5199 5195 5191 5187
5097 5097 5097 5097 5097 5096 5096 5096 5096 5095 5095 5095 5095 5095 5095 5095 5096 5098 5099 5101 5104 5106 5108 5111 5114 5117 5121 5124 5128 5133 5138 5141 5145 5148 5151 5154 5157 5160 5163 5166 5169 5172 5175 5178 5180 5182 5185 5188 5191 5195 5197 5200 5202 5204 5205 5206 5207 5208 5209 5210 5210 5211 5212 5212 5212 5213 5212 5212 5211 5210 5209 5208 5207 5205 5204 5203 5201 5200 5198 5196 5193 5190 5187 5183 5180
5095 5094 5094 5094 5094 5094 5094 5094 5093 5093 5093 5093 5093 5093 5093 5094 5094 5095 5096 5098 5100 5102 5104 5107 5109 5112 5116 5119 5123 5127 5131 5134 5137 5140 5142 5145 5148 5151 5154 5158 5161 5163 5166 5168 5170 5173 5175 5178 5182 5185 5188 5191 5194 5195 5197 5199 5200 5200 5201 5202 5203 5203 5204 5205 5205 5206 5205 5205 5204 5203 5202 5201 5200 5198 5197 5195 5194 5192 5190 5187 5184 5181 5178 5174 5171
5092 5092 5092 5092 5092 5092 5092 5092 5091 5091 5092 5092 5092 5092 5092 5092 5093 5094 5095 5096 5098 5099 5101 5104 5106 5109 5112 5115 5118 5122 5125 5128 5131 5134 5136 5139 5142 5144 5148 5151 5153 5155 5157 5159 5162 5164 5167 5170 5174 5177 5180 5183 5186 5188 5189 5191 5192 5192 5193 5194 5195 5196 5197 5198 5198 5199 5198 5198 5197 5196 5196 5195 5194 5192 5190 5188 5187 5185 5182 5179 5176 5173 5169 5166 5163
5091 5090 5090 5090 5090 5090 5091 5090 5090 5090 5090 5090 5091 5091 5091 5092 5092 5093 5094 5095 5096 5098 5100 5102 5104 5106 5109 5111 5114 5118 5120 5123 5126 5129 5131 5134 5137 5139 5142 5145 5146 5148 5150 5152 5154 5157 5160 5163 5166 5170 5173 5177 5179 5181 5182 5184 5184 5185 5186 5187 5189 5190 5191 5192 5192 5192 5192 5191 5191 5190 5189 5188 5187 5185 5184 5181 5179 5177 5174 5171 5167 5164 5161 5158 5154
5090 5089 5089 5089 5089 5090 5090 5090 5090 5089 5090 5090 5090 5090 5091 5091 5092 5093 5094 5095 5096 5097 5099 5100 5102 5104 5106 5109 5112 5114 5117 5120 5123 5125 5128 5130 5133 5135 5138 5140 5141 5142 5144 5146 5149 5151 5154 5156 5160 5163 5167 5170 5173 5174 5176 5177 5178 5179 5180 5182 5183 5185 5185 5185 5186 5186 5186 5185 5185 5184 5183 5182 5180 5178 5176 5174 5171 5168 5165 5162 5159 5156 5153 5149 5146
5091 5090 5090 5090 5090 5090 5090 5090 5090 5089 5089 5089 5090 5090 5090 5091 5092 5093 5094 5095 5095 5097 5098 5100 5101 5103 5105 5108 5110 5112 5115 5118 5120 5123 5125 5127 5129 5131 5133 5135 5136 5137 5139 5141 5144 5147 5149 5152 5155 5158 5161 5164 5166 5168 5170 5171 5172 5174 5176 5177 5178 5179 5179 5180 5180 5180 5180 5180 5179 5177 5176 5175 5173 5171 5169 5166 5163 5160 5157 5153 5150 5147 5144 5141 5137
5093 5092 5092 5091 5091 5091 5090 5090 5090 5090 5089 5089 5089 5090 5090 5091 5092 5093 5094 5095 5096 5097 5098 5100 5101 5103 5105 5107 5109 5111 5114 5116 5118 5120 5122 5124 5125 5128 5129 5130 5132 5133 5135 5138 5140 5143 5146 5148 5151 5154 5156 5159 5161 5162 5165 5166 5168 5170 5171 5172 5173 5174 5174 5174 5174 5174 5174 5173 5172 5170 5169 5167 5165 5163 5161 5158 5155 5152 5149 5145 5142 5139 5135 5132 5128